Вернуться в каталог

NOAA 16 DEB

АктивенSSO
NORAD 41262·DEBRIS·🇺🇸 United States

Запущен Sep 21, 2000 с Vandenberg Space Force Base

Loading…

Ближайшие Пролёты (ближайшие 24 часа)

TLE

СвежийSource: Space-Track

Эпоха: Sep 13, 2026, 07:43 UTC

1 41262U 00055FN  26256.32203286  .00003873  00000-0  16379-2 0  9991
2 41262  98.7735 286.4017 0045121  58.7648 301.7941 14.25538874552166

Отслеживайте NOAA 16 DEB в реальном времени с AllMySat

Download on the App Store